Regional Weather Roundup
Issued by NWS

Home | Current Version | Previous Version | Graphics & Text | Print | Product List | Glossary Off
Versions: 1 2 3 4 5 6 7 8 9 10 11 12 13 14 15 16 17 18 19 20 21 22 23 24 25 26 27 28 29 30 31 32 33 34 35 36 37 38 39 40 41 42 43 44 45 46 47 48 49 50

000
ASUS43 KMKX 161500
RWRWI

WISCONSIN REGIONAL WEATHER ROUNDUP
NATIONAL WEATHER SERVICE MILWAUKEE/SULLIVAN WI
1000 AM CDT WED AUG 16 2017

NOTE: "FAIR" INDICATES FEW OR NO CLOUDS BELOW 12,000 FEET WITH NO
SIGNIFICANT WEATHER AND/OR OBSTRUCTIONS TO VISIBILITY.

WIZ001-002-006>008-014>016-023>028-161600-
NORTHWEST WISCONSIN

CITY           SKY/WX    TMP DP  RH WIND       PRES   REMARKS
SUPERIOR ARPT    N/A     65  59  81 NE12      29.98F
ASHLAND        MOSUNNY   66  59  78 NE5       30.01S
HAYWARD        CLOUDY    65  58  78 VRB6      30.00S
SIREN          CLOUDY    65  60  83 SE6       29.95F
CUMBERLAND     CLOUDY    64  59  82 SE9       29.97F
RICE LAKE      LGT RAIN  67  62  84 SE9       29.99S
CHETEK         CLOUDY    67  61  80 SE13      29.99S
LADYSMITH      CLOUDY    68  60  75 SE10      30.02S
EAU CLAIRE     NOT AVBL
MENOMONIE      RAIN      64  64 100 SE3       29.98S
NEW RICHMOND   CLOUDY    64  63  94 SE8       29.95S
OSCEOLA        CLOUDY    65  65 100 SE9       29.96F
$$

WIZ003>005-009-010-017-018-161600-
NORTH CENTRAL WISCONSIN

CITY           SKY/WX    TMP DP  RH WIND       PRES   REMARKS
MANITOWISH WTR PTSUNNY   64  61  90 SE8       30.05S
ARBOR VITAE    PTSUNNY   63  58  85 SE5       30.05F
WOODRUFF       PTSUNNY   63  58  85 SE5       30.05F
RHINELANDER    PTSUNNY   65  60  84 VRB6      30.06F
EAGLE RIVER    CLOUDY    63  58  84 SE6       30.06F
LAND O LAKES   CLOUDY    61  56  85 S6        30.09S
PHILLIPS       MOSUNNY   68  59  73 SE8       30.02F
TOMAHAWK         N/A     62  58  89 E7        30.05F
MEDFORD        CLOUDY    65  59  79 SE10      30.03S
MERRILL        CLOUDY    64  61  88 SE10      30.05S
$$

WIZ029-030-035-036-043>047-161600-
CENTRAL WISCONSIN

CITY           SKY/WX    TMP DP  RH WIND       PRES   REMARKS
WAUSAU         CLOUDY    64  59  83 E13       30.03S
MOSINEE        CLOUDY    64  63  94 E9        30.04F
MARSHFIELD     PTSUNNY   68  59  73 SE9       30.02R
STEVENS POINT  CLOUDY    65  60  85 E12       30.03S
WAUPACA        SUNNY     71  63  75 E8        30.03F
WAUTOMA        MOSUNNY   71  60  68 E7        30.02S
WISC RAPIDS    MOSUNNY   69  59  70 SE9       30.03S
CAMP DOUGLAS   NOT AVBL
$$

WIZ011>013-019>022-031-037>040-048>050-161600-
NORTHEAST WISCONSIN

CITY           SKY/WX    TMP DP  RH WIND       PRES   REMARKS
ANTIGO         CLOUDY    63  59  87 SE7       30.07S
SHAWANO        CLOUDY    68  62  81 NE7       30.05F
OCONTO         CLOUDY    67  61  83 E7        30.05F
STURGEON BAY   CLOUDY    67  64  90 NE5       30.06F
GREEN BAY      PTSUNNY   72  64  76 NE9       30.04F
MANITOWOC      NOT AVBL
APPLETON       MOSUNNY   70  57  64 E9        30.02F
CLINTONVILLE   CLOUDY    68  61  77 E6        30.04F
OSHKOSH        SUNNY     69  61  75 E10       30.02F
$$

WIZ032>034-041-042-053>061-161600-
SOUTHWEST WISCONSIN

CITY           SKY/WX    TMP DP  RH WIND       PRES   REMARKS
LA CROSSE      SUNNY     75  60  59 SE9       29.94F
SPARTA         MOSUNNY   70  58  66 SE9       29.98S
VIROQUA        PTSUNNY   71  61  71 E10       29.98F
BOSCOBEL       CLOUDY    74  60  61 VRB5      29.97F
PRAIRIE DU CHI SUNNY     71  61  69 E5        29.95F
PLATTEVILLE    SUNNY     70  66  87 SE14      29.97F
$$

WIZ056-057-062-063-064-067-068-161600-
SOUTH CENTRAL WISCONSIN

CITY           SKY/WX    TMP DP  RH WIND       PRES   REMARKS
REEDSBURG      CLOUDY    69  60  71 E3        29.99S
BARABOO/DELLS  PTSUNNY   70  58  66 E6        30.00S
LONE ROCK      SUNNY     72  63  73 E10       29.98F
MINERAL POINT  MOSUNNY   72  63  73 E12       29.98F
MADISON        CLOUDY    72  60  66 E9        30.00F
MIDDLETON      CLOUDY    71  60  69 E7        30.01S
WATERTOWN      MOSUNNY   71  64  77 E7        30.02R
MONROE         MOSUNNY   70  61  73 E9        30.00S
JANESVILLE     MOSUNNY   75  63  64 E10       29.99F
$$

WIZ051-052-058>065-066-070>072-161600-
SOUTHEAST WISCONSIN

CITY           SKY/WX    TMP DP  RH WIND       PRES   REMARKS
MILWAUKEE      MOSUNNY   74  65  73 E7        30.02S
WAUKESHA       SUNNY     72  63  73 E7        30.03F
MILWAUKEE/TIMM SUNNY     72  59  64 E5        30.03
RACINE         SUNNY     73  67  81 E8        30.04S
KENOSHA        SUNNY     74  66  76 E10       30.02S
FOND DU LAC    SUNNY     72  59  63 E9        30.02F
SHEBOYGAN      SUNNY     71  64  78 NE8       30.03F
WEST BEND      SUNNY     70  63  78 E7        30.03F
JUNEAU         SUNNY     69  61  74 E5        30.03S
$$

LSZ147-162-161600-
LAKE SUPERIOR

STATION/POSITION TIME  TEMP    WIND        PRES    WAVE
                       AIR SEA DIR/SP/G            HT/PER
                 (UTC) (F)     (DEG/KT/KT) (MB)    (FT/S)
W MID LAKE BUOY  1350   60 60  120/ 10/ 10 1016.8F   1/ 3
DEVILS ISLAND    1400   61      80/ 14/ 15 1016.1F
PORT WING        1340   64      70/  4/  7 1015.6
SAXON HARBOR     1430   64     320/  2/  2 1015.6S
$$

LMZ867-665-643>646-161600-
LAKE MICHIGAN

STATION/POSITION TIME  TEMP    WIND        PRES    WAVE
                       AIR SEA DIR/SP/G            HT/PER
                 (UTC) (F)     (DEG/KT/KT) (MB)    (FT/S)
S GREEN BAY BUOY 1430   67 71   60/ 10/ 14 1017.4F
N MID LAKE BUOY  1350   65 67   60/  6/  8 1018.7S   1
NORTHPORT PIER   1440   68      70/  6/  7 1017.9F
KEWAUNEE LAKESHO 1430   68      30/  4/  8 1016.8R
SHEBOYGAN LAKESH 1400   67      30/  8/  9 1016.9F
PORT WASHINGTON  1440   72      70/  6/  8 1017.6F
ATWATER BUOY     1309   70 71   50/  6/  8 1017.0S
MILWAUKEE LAKESH 1440   70      70/  8/  8   N/A
S MID LAKE BUOY  1350   70 71   70/  4/  6 1016.7F   1/ 4
KENOSHA   LAKESH 1400   70      70/  7/  8 1016.3
$$

TC  - TEMPERATURE IN CELSIUS
VSB - VISIBILITY IN STATUTE MILES
WCI - WIND CHILL INDEX
HX  - HEAT INDEX




USA.gov is the U.S. government's official web portal to all federal, state and local government web resources and services.